Tracking 18980 objects as of 22-Feb-2018
HD Live streaming from Space Station
objects crossing your sky now

BIRD BB

Track BIRD BB now!
10-day predictions
BIRD BB is classified as:


NORAD ID: 42823
Int'l Code: 1998-067MX
Perigee: 382.8 km
Apogee: 390.4 km
Inclination: 51.6 °
Period: 92.1 minutes
Semi major axis: 6757 km
RCS: Unknown
Launch date: November 20, 1998
Source: (BGD)
Launch site: TYURATAM MISSILE AND SPACE COMPLEX (TTMTR)
Uplink (MHz):
Downlink (MHz): 437.375
Beacon (MHz): 437.372
Mode: 1k2AFSK 9k6GMSK CW
Call sign: JG6YJS
Status: Active

aabbcc
Your satellite tracking list
Your tracking list is empty




NASA's NSSDC Master Catalog

Two Line Element Set (TLE):
1 42823U 98067MX  18052.88229141 +.00015650 +00000-0 +17561-3 0  9990
2 42823 051.6365 225.7209 0005629 118.7825 241.3735 15.62829800035798
Source of the keplerian elements: AFSPC